Salinas, CA

5:55 AM PST on December 06, 2019 (GMT -0800)
Salinas Municipal

Weather History for KSNS - November, 2019

Change the Weather History Date:

Saturday, November 16, 2019

  Actual Average Record
Temperature  
Mean Temperature 59 °F 56 °F  
Max Temperature 74 °F 67 °F 90 °F (2008)
Min Temperature 43 °F 45 °F 30 °F (1964)
Degree Days  
Heating Degree Days 6 10  
Month to date heating degree days 99 128  
Since 1 July heating degree days 338 462  
Cooling Degree Days 0 0  
Month to date cooling degree days 0 0  
Year to date cooling degree days 272 127  
Growing Degree Days 8 (Base 50)    
Moisture  
Dew Point 48 °F    
Average Humidity 71    
Maximum Humidity 100    
Minimum Humidity 41    
Precipitation  
Precipitation 0.00 in 0.05 in 1.23 in (1965)
Month to date precipitation 0.00 0.64  
Year to date precipitation 9.18 10.14  
Sea Level Pressure  
Sea Level Pressure 30.13 in    
Wind  
Wind Speed 5 mph (SE)    
Max Wind Speed 13 mph    
Max Gust Speed 17 mph    
Visibility 4 miles    
Events Fog    
T = Trace of Precipitation, MM = Missing Value Source: NWS Daily Summary

Daily Weather History Graph

Daily Weather History Graph

Search for Another Location

Airport or City:

Astronomy

Nov. 16, 2019 Rise Set
Actual Time 6:45 AM PST 4:56 PM PST
Civil Twilight 6:17 AM PST 5:24 PM PST
Nautical Twilight 5:46 AM PST 5:55 PM PST
Astronomical Twilight 5:15 AM PST 6:26 PM PST
Moon 8:37 PM PST (11/16) 10:41 AM PST (11/16)
Length of Visible Light 11h 06m
Length of Day
10h 11m
Waning Gibbous, 81% of the Moon is Illuminated
Nov 16
Waning Gibbous
Nov 19
Last Quarter
Nov 26
New
Dec 3
First Quarter
Dec 11
Full

Hourly Weather History & Observations

Time (PST) Temp. Windchill Dew Point Humidity Pressure Visibility Wind Dir Wind Speed Gust Speed Precip Events Conditions
12:53 AM 46.9 °F - 44.1 °F 90% 30.17 in 10.0 mi Calm Calm - N/A   Clear
1:53 AM 48.9 °F - 45.0 °F 86% 30.17 in 9.0 mi Calm Calm - N/A   Clear
2:11 AM 48.9 °F - 46.0 °F 90% 30.15 in 9.0 mi Calm Calm - N/A   Partly Cloudy
4:53 AM 46.0 °F - 45.0 °F 96% 30.17 in 0.2 mi Calm Calm - N/A Fog Fog
5:16 AM 46.9 °F - 45.0 °F 93% 30.13 in 0.5 mi SE 4.6 mph - N/A Fog Fog
5:20 AM 46.0 °F 44.8 °F 44.1 °F 93% 30.13 in 0.2 mi SE 3.5 mph - N/A Fog Fog
5:40 AM 46.0 °F - 44.1 °F 93% 30.14 in 3.0 mi Calm Calm - N/A   Mostly Cloudy
5:51 AM 46.4 °F - 44.6 °F 93% 30.14 in 1.5 mi Calm Calm - N/A   Partly Cloudy
5:53 AM 46.0 °F - 44.1 °F 93% 30.17 in 2.0 mi Calm Calm - N/A   Partly Cloudy
6:02 AM 46.0 °F - 44.1 °F 93% 30.14 in 7.0 mi Calm Calm - N/A   Clear
6:26 AM 44.1 °F - 42.1 °F 93% 30.14 in 2.5 mi Calm Calm - N/A   Partly Cloudy
6:35 AM 44.1 °F - 42.1 °F 93% 30.14 in 1.0 mi Calm Calm - N/A   Mist
6:42 AM 43.0 °F 40.3 °F 41.0 °F 93% 30.14 in 0.5 mi ESE 4.6 mph - N/A Fog Fog
6:51 AM 44.6 °F 42.2 °F 42.8 °F 93% 30.14 in 1.2 mi SE 4.6 mph - N/A   Scattered Clouds
6:53 AM 44.1 °F 41.5 °F 42.1 °F 93% 30.17 in 2.5 mi ESE 4.6 mph - N/A   Partly Cloudy
7:00 AM 43.0 °F 41.3 °F 42.1 °F 97% 30.13 in 5.0 mi ESE 3.5 mph - N/A   Partly Cloudy
7:53 AM 46.9 °F - 46.0 °F 97% 30.18 in 8.0 mi SSE 5.8 mph - N/A   Clear
8:53 AM 52.0 °F - 48.9 °F 89% 30.19 in 10.0 mi SSE 8.1 mph - N/A   Clear
9:53 AM 57.9 °F - 50.0 °F 75% 30.18 in 10.0 mi SE 10.4 mph - N/A   Clear
10:53 AM 64.0 °F - 50.0 °F 60% 30.16 in 10.0 mi SSE 4.6 mph - N/A   Clear
11:53 AM 68.0 °F - 48.9 °F 50% 30.13 in 10.0 mi Calm Calm - N/A   Clear
12:53 PM 73.0 °F - 48.9 °F 42% 30.10 in 10.0 mi Variable 5.8 mph - N/A   Clear
1:53 PM 70.0 °F - 53.1 °F 55% 30.08 in 10.0 mi NW 10.4 mph - N/A   Clear
2:53 PM 66.0 °F - 53.1 °F 63% 30.07 in 10.0 mi NW 8.1 mph - N/A   Clear
3:53 PM 61.0 °F - 52.0 °F 72% 30.08 in 10.0 mi NW 11.5 mph - N/A   Clear
4:53 PM 55.9 °F - 52.0 °F 87% 30.09 in 9.0 mi WNW 8.1 mph - N/A   Clear
5:31 PM 54.0 °F - 51.1 °F 90% 30.07 in 7.0 mi WNW 4.6 mph - N/A   Scattered Clouds
5:53 PM 54.0 °F - 51.1 °F 90% 30.11 in 7.0 mi NW 8.1 mph - N/A   Mostly Cloudy
6:17 PM 53.1 °F - 51.1 °F 93% 30.08 in 2.0 mi NW 4.6 mph - N/A   Overcast
6:30 PM 53.1 °F - 51.1 °F 93% 30.08 in 3.0 mi Calm Calm - N/A   Overcast
6:53 PM 53.1 °F - 51.1 °F 93% 30.11 in 4.0 mi North 4.6 mph - N/A   Overcast
7:14 PM 53.1 °F - 51.1 °F 93% 30.09 in 1.8 mi NW 5.8 mph - N/A   Overcast
7:50 PM 53.6 °F - 51.8 °F 94% 30.09 in 0.5 mi Calm Calm - N/A Fog Fog
7:53 PM 52.0 °F - 51.1 °F 97% 30.12 in 0.5 mi Calm Calm - N/A Fog Fog
8:43 PM 52.0 °F - 51.1 °F 97% 30.10 in 0.2 mi Calm Calm - N/A Fog Fog
8:53 PM 52.0 °F - 51.1 °F 97% 30.13 in 0.2 mi Calm Calm - N/A Fog Fog
9:53 PM 52.0 °F - 50.0 °F 93% 30.12 in 0.2 mi Calm Calm - N/A Fog Fog
10:53 PM 50.0 °F - 48.9 °F 96% 30.13 in 0.2 mi Calm Calm - N/A Fog Fog
11:42 PM 48.9 °F - 46.9 °F 93% 30.10 in 0.2 mi SE 5.8 mph - N/A Fog Fog
11:53 PM 48.9 °F - 48.0 °F 97% 30.13 in 0.2 mi ESE 4.6 mph - N/A Fog Fog